Location: Christianberg
(48.9086°N, 14.0209°E)
Time: 08:26:57
(UTC+00:00)

USA 307 - Visible Passes

Search period start: 28 October 2021 00:00
Search period end: 07 November 2021 00:00
Orbit: 555 x 584 km, 54.0° (Epoch: 27 September)

Date Brightness Start Highest point End Pass type
(mag) Time Alt. Az. Time Alt. Az. Time Alt. Az.
28 Oct 3.9 03:00:39 44° E 03:00:39 44° E 03:03:50 10° ENE visible
28 Oct 3.2 04:36:42 17° W 04:39:42 51° NNW 04:43:48 10° ENE visible
29 Oct 3.9 03:01:34 45° ENE 03:01:34 45° ENE 03:04:35 10° ENE visible
29 Oct 3.4 04:37:37 18° W 04:40:30 45° N 04:44:33 10° ENE visible
30 Oct 3.9 03:02:24 43° ENE 03:02:24 43° ENE 03:05:16 10° ENE visible
30 Oct 3.5 04:38:28 17° WNW 04:41:19 42° N 04:45:18 10° ENE visible
31 Oct 4.1 03:03:12 39° NE 03:03:12 39° NE 03:05:58 10° ENE visible
31 Oct 3.6 04:39:15 17° WNW 04:42:07 40° N 04:46:05 10° ENE visible
01 Nov 4.2 03:03:57 36° NE 03:03:57 36° NE 03:06:38 10° ENE visible
01 Nov 3.6 04:40:01 17° WNW 04:42:55 41° N 04:46:53 10° ENE visible
02 Nov 4.3 03:04:40 34° NE 03:04:40 34° NE 03:07:19 10° ENE visible
02 Nov 3.6 04:40:43 17° WNW 04:43:41 43° N 04:47:42 10° E visible
03 Nov 4.4 03:05:22 32° NE 03:05:22 32° NE 03:08:01 10° ENE visible
03 Nov 3.5 04:41:25 17° WNW 04:44:27 47° NNE 04:48:30 10° E visible
04 Nov 4.4 03:06:04 32° NE 03:06:04 32° NE 03:08:45 10° ENE visible
04 Nov 3.3 04:42:06 17° WNW 04:45:11 54° NNE 04:49:17 10° E visible
05 Nov 4.4 03:06:45 32° NE 03:06:45 32° NE 03:09:29 10° ENE visible
05 Nov 3.1 04:42:48 17° WNW 04:45:52 64° NNE 04:50:02 10° ESE visible
06 Nov 4.4 03:07:27 33° NE 03:07:27 33° NE 03:10:15 10° ENE visible
06 Nov 2.9 04:43:30 18° WNW 04:46:32 80° NNE 04:50:43 10° ESE visible
